CAPE
8 8 6 4 4 3 4 5 5 4 4 4 4 3 4 4 5 5 5 6 4 4 5 5 5 4 3 3 2 2 6 0 0 0 0 0 0 0 0 0 0 0 27 16 39 3 0 0 1 0 0 0 0 1 4 61 204 704 421 215 320 337 692 266 149 488 1060 813 706 907 996 890 707 776 423 296 338 288 234 244 267 313 329 414 510 534 470 562
4 7 8 6 6 5 4 5 3 3 5 5 4 4 4 4 4 5 4 5 5 5 6 5 5 4 3 2 4 5 0 0 0 0 0 0 0 0 0 0 0 0 0 0 0 0 0 0 0 0 0 0 0 22 161 217 246 237 311 300 239 400 521 561 661 832 1120 806 884 861 1120 873 838 506 369 403 235 216 256 320 350 354 512 527 570 510 561 606
3 3 3 3 4 4 5 4 4 3 4 5 6 5 6 6 5 5 4 5 5 5 4 5 6 4 2 3 4 6 0 0 0 0 0 0 0 0 0 0 0 16 0 0 0 0 0 0 0 0 0 0 0 0 40 244 208 20 234 220 467 821 874 984 1000 1007 1373 930 895 1061 1107 977 730 604 666 344 274 217 279 253 296 229 252 252 451 541 608 664
4 4 4 3 3 4 5 5 4 5 5 6 6 7 6 5 6 4 3 5 5 5 5 4 5 4 4 3 3 3 0 0 0 0 0 0 0 0 0 0 0 39 0 0 0 0 0 0 0 0 0 0 0 0 29 61 3 136 116 248 676 999 1367 934 1224 1122 955 976 1091 1229 1117 1037 990 860 671 340 249 260 344 271 262 164 237 274 355 444 602 578
4 4 4 4 4 3 3 4 4 5 5 6 4 5 6 6 3 4 5 4 4 4 5 4 3 5 5 5 6 1 0 0 0 0 0 195 0 0 0 0 2 0 0 0 0 0 0 0 0 0 0 74 0 0 0 6 2 216 163 214 232 1227 1409 1448 1361 915 809 1052 1274 994 909 1079 826 540 447 301 300 271 316 284 257 266 244 357 367 523 572 590
4 3 3 3 2 2 4 4 4 4 4 5 5 4 4 3 3 4 5 5 3 3 4 6 4 4 3 5 3 1 0 0 0 0 29 762 0 0 0 22 0 0 0 0 0 0 0 0 0 0 0 39 0 6 0 1 21 181 376 417 426 1012 1410 1437 939 959 856 919 1011 1118 1134 862 797 572 497 340 551 506 276 296 400 361 259 288 430 551 604 599
3 2 3 3 3 3 4 4 4 7 4 3 4 4 3 3 4 4 4 4 4 4 4 5 5 4 4 1 0 0 0 0 0 0 1333 137 0 0 22 76 0 0 0 0 0 0 0 0 0 0 0 6 0 2 1 0 8 36 63 850 1247 1094 1458 1495 833 918 890 1078 1176 1170 918 824 551 453 277 336 412 365 332 389 414 363 399 470 563 609 559 569
3 3 3 4 3 3 3 4 3 4 4 3 3 4 4 5 5 4 4 5 4 5 5 4 6 3 1 0 0 0 0 0 0 327 230 0 0 0 195 0 0 0 0 0 0 0 0 0 0 0 0 46 15 0 0 0 0 24 20 1347 1785 1780 1701 1323 798 1010 1285 1278 1160 975 918 907 785 474 282 540 408 338 383 378 403 388 392 441 557 592 623 598
2 2 2 2 3 3 4 4 3 2 3 4 4 4 4 4 4 4 5 6 6 5 4 4 3 2 4 0 0 0 0 0 0 385 0 0 0 30 58 0 0 0 0 0 0 0 0 0 0 0 10 9 0 6 0 0 0 11 144 1536 1609 1336 1619 1161 1255 1356 1431 1452 1002 921 836 829 923 616 1000 587 538 439 388 387 408 436 409 490 571 568 605 648
2 2 3 3 4 4 3 4 4 2 3 4 4 4 4 3 4 4 3 5 6 5 4 6 2 1 1 0 0 0 0 0 0 77 0 0 0 0 0 0 0 0 0 0 0 0 0 0 0 0 0 1 0 0 0 0 0 10 1245 1508 1573 1513 1484 1355 1298 1346 1448 1308 1130 960 723 684 758 1158 510 787 502 408 469 408 410 439 476 523 612 644 741 740
1 2 2 3 3 3 2 3 4 5 4 4 4 3 3 4 3 4 4 4 4 4 4 5 7 0 0 0 0 0 0 0 0 0 0 0 0 0 0 0 0 0 0 0 0 0 0 0 0 0 0 0 0 0 0 0 437 1079 1375 1586 1404 1491 1718 1510 1375 1463 1245 1079 1517 930 793 889 846 887 879 499 506 587 574 451 406 419 455 546 619 679 748 750
2 2 2 2 2 2 2 3 3 3 3 4 3 2 4 4 3 4 4 3 3 3 4 2 3 0 0 0 0 0 0 0 0 0 0 0 0 0 0 0 0 0 0 0 0 0 0 0 0 0 0 0 0 0 945 794 1118 1416 1084 1049 1036 1391 1130 1434 1436 1444 1601 1012 1140 712 564 617 605 1119 891 562 569 627 574 453 430 464 530 619 654 698 761 799
2 1 2 4 2 2 2 2 3 4 4 3 4 3 3 5 3 4 4 2 2 0 2 2 2 0 0 0 0 0 0 0 0 0 0 0 0 0 0 0 0 0 0 0 0 0 0 0 0 0 0 0 0 33 845 1136 1327 1195 1046 1228 1017 882 1010 948 767 896 1409 1157 1117 706 570 549 767 772 792 580 619 520 489 499 402 446 501 546 603 602 728 790
2 2 2 3 4 4 3 3 3 4 3 3 4 4 3 3 3 3 2 2 1 2 3 3 0 0 0 0 0 0 0 0 0 0 0 0 0 0 0 0 0 0 0 0 0 0 0 0 0 0 0 0 0 560 1017 987 797 791 1003 934 1029 607 1063 684 765 786 1289 768 1298 1240 621 572 700 736 657 633 675 458 498 440 368 388 453 538 581 588 596 715
2 2 2 3 3 4 4 4 2 2 2 2 3 3 3 2 2 2 1 0 2 5 4 0 0 0 0 0 0 0 0 0 0 0 0 0 0 0 0 0 0 0 0 0 0 0 0 0 4 0 0 0 164 177 887 1002 787 914 657 593 648 642 1099 583 663 754 1067 638 640 837 533 637 637 706 620 676 635 619 572 463 375 388 492 584 641 644 655 703
2 2 2 1 2 3 4 5 9 4 2 2 2 2 2 1 0 2 1 0 5 4 3 0 0 0 0 0 0 0 0 0 0 0 0 0 0 0 0 0 0 0 0 0 0 0 0 0 2 0 0 0 51 519 815 917 855 647 485 546 430 442 823 621 521 506 794 734 580 925 666 544 416 672 694 631 676 718 667 512 458 431 485 566 647 627 620 624
2 3 4 3 2 3 2 5 8 4 2 2 1 0 0 0 0 0 1 5 2 3 0 0 0 0 0 0 0 0 0 0 0 0 0 0 0 0 0 0 0 0 0 0 0 0 0 0 0 0 0 0 0 242 465 466 604 714 351 621 432 415 725 636 592 574 798 845 563 540 685 658 704 803 534 541 667 725 573 527 499 480 509 563 628 589 601 620
2 2 4 4 2 2 3 6 5 2 1 0 0 0 0 1 0 4 2 2 1 0 0 0 0 0 0 0 0 0 0 0 0 0 0 0 0 0 0 0 0 0 0 0 0 0 0 0 0 0 0 0 0 28 111 255 438 522 462 547 431 636 641 790 629 615 584 782 615 610 649 904 670 890 465 491 653 637 555 478 492 425 435 532 518 578 608 626
1 2 3 5 3 2 2 4 3 3 1 0 0 0 0 0 0 0 0 0 0 0 0 0 0 0 0 0 0 0 0 0 0 0 0 0 0 0 0 0 0 0 0 0 0 0 0 0 0 0 0 0 0 0 0 18 306 693 505 520 611 521 569 832 709 655 628 671 584 548 631 696 602 755 384 387 351 528 571 540 491 360 372 496 512 528 575 623
1 1 3 4 5 3 2 2 5 5 0 0 0 0 0 0 0 0 0 0 0 0 0 0 0 0 0 0 0 0 0 0 0 0 0 0 0 0 0 0 0 0 0 0 0 0 0 0 0 0 0 0 0 0 11 2 309 498 456 579 590 582 691 902 1183 811 671 584 650 734 845 776 782 650 371 447 556 377 458 537 510 458 433 407 428 440 516 562
1 2 3 2 3 4 2 3 4 5 0 0 0 0 0 0 0 0 0 0 0 0 0 0 0 0 0 0 0 0 0 0 0 0 0 0 0 0 0 0 0 0 0 0 0 0 0 0 0 0 0 0 0 25 0 0 68 452 507 414 594 450 656 972 972 859 934 752 416 523 580 731 713 459 426 476 512 200 235 357 452 481 447 415 431 359 404 485
1 2 2 2 2 3 3 3 3 2 0 0 0 0 0 0 0 0 0 0 0 0 0 0 0 0 0 0 0 0 0 0 0 0 0 0 0 0 0 0 0 0 0 0 0 0 0 0 0 0 0 0 0 0 0 0 0 93 128 438 434 852 1026 820 1093 898 652 571 571 468 463 734 554 455 637 479 447 222 129 243 400 447 435 449 323 314 330 311
1 2 1 2 2 2 2 4 0 1 0 0 0 0 0 0 0 0 0 0 0 0 0 0 0 0 0 0 0 0 0 0 0 0 0 0 0 0 0 0 0 0 0 0 0 0 0 0 0 0 0 0 0 0 0 0 0 0 0 126 286 1002 648 515 600 826 638 621 720 511 423 503 572 533 598 738 379 324 1269 855 324 337 391 373 299 298 278 235
1 0 2 2 3 1 1 0 1 0 0 0 0 0 0 0 0 0 0 0 0 0 0 0 0 0 0 0 0 0 0 0 0 0 0 0 0 0 0 0 0 0 0 0 0 0 0 0 0 0 0 0 0 0 0 0 0 0 0 6 700 881 620 824 593 611 554 372 376 471 534 433 595 611 457 423 757 694 763 850 844 578 358 349 317 298 304 226
0 1 1 4 1 2 0 1 0 0 0 0 0 0 0 0 0 0 0 0 0 0 0 0 0 0 0 0 0 0 0 0 0 0 0 0 0 0 0 0 0 0 0 0 0 0 0 0 0 0 0 0 0 0 0 0 0 0 0 5 328 958 786 808 497 458 418 434 416 380 432 379 530 815 505 563 552 534 570 672 556 507 274 242 232 234 283 272
1 2 1 2 4 0 0 0 0 0 0 0 0 0 0 0 0 0 0 0 0 0 0 0 0 0 0 0 0 0 0 0 0 0 0 0 0 0 0 0 0 0 0 0 0 0 0 0 0 0 0 0 0 0 0 0 0 0 1 0 223 848 903 727 673 574 368 258 366 205 320 366 476 654 501 511 497 502 665 473 630 751 816 262 196 191 180 146
2 1 2 2 2 1 0 0 0 0 0 0 0 0 0 0 0 0 0 0 0 0 0 0 0 0 0 0 0 0 0 0 0 0 0 0 0 0 0 0 0 0 0 0 0 0 0 0 0 0 0 0 0 0 0 0 0 0 5 5 102 895 835 790 757 522 655 423 356 240 270 310 227 536 781 614 388 564 462 412 509 675 808 474 179 155 151 96
1 1 1 3 2 1 0 0 0 0 0 0 0 0 0 0 0 0 0 0 0 0 0 0 0 0 0 0 0 0 0 0 0 0 0 0 0 0 0 0 0 0 0 0 0 0 0 0 0 0 0 0 0 0 0 0 0 0 6 0 629 788 798 776 582 406 514 562 433 281 123 78 88 334 910 597 459 384 585 547 516 658 695 699 324 130 123 72
1 2 2 3 3 1 2 0 0 0 0 0 0 0 0 0 0 0 0 0 0 0 0 0 0 0 0 0 0 0 0 0 0 0 0 0 0 0 0 0 0 0 0 0 0 0 0 0 0 0 0 0 0 0 0 0 0 364 377 485 614 748 820 733 486 530 561 314 611 337 365 104 181 324 380 364 540 465 620 610 415 450 687 829 538 248 129 59
1 1 2 3 2 0 0 1 0 0 0 0 0 0 0 0 0 0 0 0 0 0 0 0 0 0 0 0 0 0 0 0 0 0 0 0 0 0 0 0 0 0 0 0 0 0 0 0 0 0 0 0 0 0 0 0 5 283 290 338 406 368 415 414 360 518 501 204 298 447 351 127 96 166 534 309 232 449 649 673 605 678 644 875 925 614 281 82
0 0 1 4 0 0 0 0 0 0 0 0 0 0 0 0 0 0 3 0 0 0 0 0 0 0 0 0 0 0 0 0 0 0 0 0 0 0 0 0 0 0 0 0 0 0 0 0 0 0 0 0 0 0 0 0 318 106 22 337 316 344 363 307 347 303 344 255 10 458 481 112 107 256 303 413 274 399 583 729 655 646 792 775 917 868 628 178
0 0 0 1 0 0 0 0 0 0 0 0 0 0 0 0 0 0 0 0 0 0 0 0 0 0 0 0 0 0 0 0 0 0 0 0 0 0 0 0 0 0 0 0 0 0 0 0 0 0 0 0 0 0 0 0 393 90 268 46 32 394 373 210 238 246 233 304 8 254 552 140 198 274 268 189 254 207 475 500 636 701 670 810 951 953 1235 680
0 0 1 0 2 0 0 0 0 0 0 0 0 0 0 0 0 0 0 0 0 0 0 0 0 0 0 0 0 0 0 0 0 0 0 0 0 0 0 0 0 0 0 0 0 0 0 0 0 0 0 0 0 0 0 8 136 44 13 6 1 317 140 90 109 145 158 43 123 138 390 377 152 161 158 238 172 191 156 498 677 717 779 808 859 964 1365 1165
0 0 0 0 0 0 0 0 0 0 0 0 0 0 0 0 0 337 0 0 0 0 0 0 0 0 0 0 0 0 0 0 0 0 0 0 0 0 0 0 0 0 0 0 0 0 0 0 0 0 0 0 0 0 0 0 131 11 12 0 6 10 21 118 233 200 164 415 314 356 227 136 235 762 257 513 754 861 520 13 566 865 961 911 1125 1254 1754 1762
0 0 0 0 1 0 0 0 0 0 0 0 0 0 0 0 0 0 0 0 0 0 0 0 0 0 0 0 3 0 0 0 0 0 0 0 0 0 0 0 0 0 0 0 0 0 0 0 0 0 0 0 0 0 0 0 14 165 45 6 0 0 89 7 264 317 380 303 167 255 407 367 482 218 332 904 743 875 1030 736 601 1077 1034 1111 1466 1276 1540 1618
0 0 0 0 0 0 0 0 0 0 0 0 0 0 0 0 0 0 0 0 0 0 0 0 0 0 0 0 0 0 0 0 0 0 0 0 0 0 0 0 0 0 0 0 0 0 0 0 0 0 0 0 0 0 0 0 0 138 109 21 7 163 26 426 318 363 226 9 457 219 212 248 267 201 440 780 664 784 1039 977 941 916 932 888 1366 1530 1715 1729
0 0 0 0 0 0 0 0 0 0 0 0 0 0 0 0 0 0 485 0 0 0 0 0 0 0 0 0 0 0 0 0 0 0 0 0 0 0 0 0 0 0 0 0 0 0 0 0 0 0 0 0 0 0 0 1 97 4 4 22 0 15 129 86 142 273 269 58 490 191 284 316 129 594 648 818 645 726 832 808 747 776 932 762 1092 1451 1943 1888
0 0 346 13 0 0 0 0 0 0 0 0 22 522 135 0 0 0 0 0 0 0 0 0 0 0 0 0 0 0 0 0 0 0 0 0 0 0 0 0 0 0 0 0 0 0 0 0 0 0 0 0 0 0 0 0 0 30 0 102 0 22 7 257 345 144 134 21 394 179 138 183 241 469 584 698 527 582 788 823 744 595 719 835 1109 1478 1764 1864
0 0 0 0 0 0 0 0 0 0 0 4 0 56 1 1 0 0 0 0 0 0 0 0 0 0 0 0 0 0 0 0 0 0 2 0 0 0 0 0 0 0 0 0 0 0 0 0 0 0 0 0 0 0 0 0 0 0 74 73 0 0 44 234 96 331 85 231 165 523 57 380 418 522 631 784 484 514 627 728 763 555 748 939 970 1212 1503 1597
0 0 0 0 0 0 0 0 0 0 10 0 10 3 0 0 0 0 0 0 0 0 0 0 0 0 0 0 0 0 0 0 0 5 4 14 0 0 0 0 0 0 0 0 0 0 0 0 0 0 0 0 0 0 0 0 0 0 3 101 3 0 0 78 39 235 148 424 159 324 226 329 320 220 661 739 633 668 547 620 755 763 785 1026 1419 1509 1424 1407
0 0 0 0 0 0 0 0 0 0 0 0 0 0 0 0 4 0 0 0 0 0 0 0 0 0 0 0 0 0 0 0 0 10 13 16 0 0 0 0 0 0 0 0 0 0 0 0 0 0 0 0 0 0 0 0 0 0 0 20 0 1 49 48 73 10 165 221 186 86 85 466 97 307 620 706 646 542 565 580 564 653 855 958 1121 1526 1646 1507
0 0 0 0 0 0 0 0 0 0 0 0 0 0 0 710 0 0 0 0 0 0 0 0 0 0 0 0 0 0 1 0 0 6 3 8 0 0 0 0 0 0 0 0 0 0 0 0 0 0 0 0 0 0 0 0 0 0 0 7 0 0 64 42 136 279 190 267 96 238 294 744 289 438 593 652 518 462 452 440 534 555 712 962 1084 1092 1448 1634
0 0 0 0 0 0 0 0 274 222 0 0 0 0 0 0 0 0 0 0 0 0 0 0 0 0 0 0 0 0 0 1 1 1 0 0 1 0 0 0 0 0 0 0 0 0 73 0 0 0 0 0 0 0 0 0 0 0 0 0 0 0 1 34 70 505 425 376 212 266 228 680 342 550 589 590 472 289 289 393 474 446 573 776 847 1068 1273 1302
0 4 0 0 0 0 0 0 0 0 0 42 0 0 0 0 0 0 0 0 0 0 0 0 0 0 0 0 0 0 0 3 1 1 0 0 0 0 0 0 0 0 0 0 0 0 0 2 0 0 0 0 0 0 0 0 0 0 0 0 0 0 5 122 485 553 530 419 496 170 79 739 396 546 640 525 388 325 350 390 462 400 444 625 747 733 818 1290
0 0 0 20 0 0 0 0 0 0 0 0 0 0 0 0 0 0 0 0 0 0 0 0 0 0 0 0 0 0 0 0 3 1 0 0 0 0 0 0 0 0 2 176 168 6 0 0 4 0 0 0 0 0 0 0 0 0 0 0 10 1 114 193 395 384 267 446 260 249 582 546 380 469 565 501 446 403 496 413 414 372 313 462 604 673 842 886
0 0 0 0 0 0 0 0 0 0 0 0 0 0 0 0 0 0 0 0 0 0 0 0 0 0 0 13 41 5 8 0 0 2 0 1 0 0 0 0 2 0 750 204 182 101 44 0 0 3 0 0 0 0 0 0 0 0 0 0 0 108 105 539 808 392 73 545 456 604 952 558 391 462 653 562 476 491 600 522 481 431 412 427 428 422 488 749
0 30 4 107 10 0 0 0 0 0 0 0 0 0 0 0 0 0 0 0 0 0 4 0 0 20 6 85 48 42 22 0 8 36 4 1 0 0 0 0 1 4 607 240 25 7 122 0 0 0 0 0 0 0 0 0 0 0 0 19 47 62 145 290 225 139 980 418 590 590 793 553 419 451 600 564 558 590 671 607 517 454 432 442 379 320 261 303
0 0 21 32 0 24 0 0 29 0 0 0 0 0 0 0 0 35 0 0 0 0 5 48 25 1 58 63 123 62 119 50 21 0 2 1 5 4 1 0 5 11 44 14 4 62 12 0 0 0 0 0 0 0 0 53 83 152 122 107 151 110 141 187 486 283 549 148 3 680 787 825 612 494 603 592 492 448 448 301 308 338 283 213 220 211 299 324
0 0 87 0 111 0 0 21 25 0 54 166 88 1 0 0 0 0 0 5 19 6 0 133 2 1 0 28 40 57 124 46 0 16 0 5 1 20 4 4 5 14 11 15 11 10 50 0 10 0 0 0 0 0 11 42 10 6 133 294 304 228 291 438 282 222 413 647 415 867 933 927 639 436 556 525 422 440 373 289 210 176 174 144 230 237 329 424
128 119 369 382 331 378 250 3 0 0 0 168 0 0 0 0 0 0 0 6 92 23 0 86 2 0 0 3 78 9 0 0 0 0 0 0 0 30 4 4 10 6 13 9 36 21 5 269 34 1 4 8 4 0 1 69 13 18 106 170 344 536 583 604 503 595 717 869 789 877 889 725 472 505 580 467 426 438 398 296 237 203 174 184 284 288 278 281
1 0 86 553 348 167 406 0 0 0 0 0 2 14 0 0 0 0 0 0 0 5 0 0 0 0 0 2 0 0 0 0 0 0 0 0 5 0 8 3 0 15 4 8 12 38 16 317 6 8 9 20 18 13 7 5 42 105 128 181 239 321 766 683 898 657 1036 994 960 908 910 669 453 526 444 510 478 466 425 328 259 211 158 126 160 220 237 235
4 0 436 401 727 59 14 0 0 0 0 0 8 78 0 0 0 0 2 0 0 0 0 0 0 0 0 0 0 0 0 0 0 0 0 0 0 0 0 0 1 7 7 3 14 35 31 266 112 100 15 24 24 117 24 16 16 118 42 124 224 396 419 414 544 594 837 960 903 948 1118 829 504 458 541 472 476 486 399 312 256 181 148 67 121 88 146 206
Wind_Speed
nan nan nan nan nan nan nan nan nan nan nan nan nan nan nan nan nan nan nan nan nan nan nan nan nan nan nan nan nan nan nan nan nan nan nan nan nan nan nan nan nan nan nan nan nan nan nan nan nan nan nan nan nan nan nan nan 5 2 1 1 3 5 8 10 10 5 8 12 16 13 19 6 5 9 6 6 9 11 10 12 12 12 12 12 12 5 4 4
nan nan nan nan nan nan nan nan nan nan nan nan nan nan nan nan nan nan nan nan nan nan nan nan nan nan nan nan nan nan nan nan nan nan nan nan nan nan nan nan nan nan nan nan nan nan nan nan nan nan nan nan nan nan 7 5 4 1 1 2 1 3 7 8 4 16 18 17 14 14 15 8 8 6 9 7 6 8 11 11 9 10 11 15 13 5 4 4
nan nan nan nan nan nan nan nan nan nan nan nan nan nan nan nan nan nan nan nan nan nan nan nan nan nan nan nan nan nan nan nan nan nan nan nan nan nan nan nan nan nan nan nan nan nan nan nan nan nan nan nan nan nan nan 6 3 nan 2 2 2 6 7 9 21 24 23 14 12 11 12 10 8 10 11 6 6 8 8 9 8 5 7 12 11 3 4 5
nan nan nan nan nan nan nan nan nan nan nan nan nan nan nan nan nan nan nan nan nan nan nan nan nan nan nan nan nan nan nan nan nan nan nan nan nan nan nan nan nan nan nan nan nan nan nan nan nan nan nan nan nan nan nan nan nan 6 1 2 1 6 7 12 19 19 15 16 13 11 9 10 10 9 8 5 8 11 10 8 4 1 4 9 9 3 4 6
nan nan nan nan nan nan nan nan nan nan nan nan nan nan nan nan nan nan nan nan nan nan nan nan nan nan nan nan nan nan nan nan nan nan nan 25 nan nan nan nan nan nan nan nan nan nan nan nan nan nan nan nan nan nan nan nan nan 5 3 3 3 3 2 7 12 13 15 18 14 8 6 9 10 6 2 1 7 11 10 8 6 2 2 6 7 1 4 5
nan nan nan nan nan nan nan nan nan nan nan nan nan nan nan nan nan nan nan nan nan nan nan nan nan nan nan nan nan nan nan nan nan nan nan 26 nan nan nan nan nan nan nan nan nan nan nan nan nan nan nan nan nan nan nan nan nan 5 3 4 3 1 1 2 10 13 14 12 11 10 11 8 7 4 4 10 13 11 10 8 7 5 2 3 5 2 3 5
nan nan nan nan nan nan nan nan nan nan nan nan nan nan nan nan nan nan nan nan nan nan nan nan nan nan nan nan nan nan nan nan nan nan 29 26 nan nan nan nan nan nan nan nan nan nan nan nan nan nan nan nan nan nan nan nan nan nan nan 8 4 4 3 5 8 12 12 11 12 10 6 5 2 1 7 10 9 6 8 6 8 7 4 4 5 3 3 5
nan nan nan nan nan nan nan nan nan nan nan nan nan nan nan nan nan nan nan nan nan nan nan nan nan nan nan nan nan nan nan nan nan 26 28 nan nan nan 29 nan nan nan nan nan nan nan nan nan nan nan nan nan nan nan nan nan nan nan nan 7 10 8 6 6 6 9 11 11 10 8 8 9 6 3 3 8 4 5 5 5 8 8 5 3 5 4 4 5
nan nan nan nan nan nan nan nan nan nan nan nan nan nan nan nan nan nan nan nan nan nan nan nan nan nan nan nan nan nan nan nan nan 26 nan nan nan nan nan nan nan nan nan nan nan nan nan nan nan nan nan nan nan nan nan nan nan nan 10 13 12 11 8 7 7 9 11 10 9 13 10 10 10 4 8 4 4 4 5 4 5 6 5 5 4 6 6 6
nan nan nan nan nan nan nan nan nan nan nan nan nan nan nan nan nan nan nan nan nan nan nan nan nan nan nan nan nan nan nan nan nan nan nan nan nan nan nan nan nan nan nan nan nan nan nan nan nan nan nan nan nan nan nan nan nan nan 19 18 18 15 12 8 8 10 13 14 11 13 10 10 11 9 6 3 2 4 5 4 3 4 5 6 6 8 9 8
nan nan nan nan nan nan nan nan nan nan nan nan nan nan nan nan nan nan nan nan nan nan nan nan nan nan nan nan nan nan nan nan nan nan nan nan nan nan nan nan nan nan nan nan nan nan nan nan nan nan nan nan nan nan nan nan 26 25 26 26 23 17 15 13 11 11 13 17 16 16 16 15 14 12 8 2 2 4 6 4 2 3 4 7 6 7 10 11
nan nan nan nan nan nan nan nan nan nan nan nan nan nan nan nan nan nan nan nan nan nan nan nan nan nan nan nan nan nan nan nan nan nan nan nan nan nan nan nan nan nan nan nan nan nan nan nan nan nan nan nan nan nan 27 25 25 26 25 26 23 20 16 13 11 10 11 16 17 19 19 15 11 12 8 5 3 3 5 4 2 3 4 8 7 8 10 11
nan nan nan nan nan nan nan nan nan nan nan nan nan nan nan nan nan nan nan nan nan nan nan nan nan nan nan nan nan nan nan nan nan nan nan nan nan nan nan nan nan nan nan nan nan nan nan nan nan nan nan nan nan nan 24 19 24 22 22 26 24 20 18 17 13 14 13 17 17 17 12 9 12 15 7 5 4 2 4 4 2 4 3 7 8 8 9 10
nan nan nan nan nan nan nan nan nan nan nan nan nan nan nan nan nan nan nan nan nan nan nan nan nan nan nan nan nan nan nan nan nan nan nan nan nan nan nan nan nan nan nan nan nan nan nan nan nan nan nan nan nan 22 17 20 17 16 23 20 22 21 20 20 15 15 14 15 18 23 15 13 12 14 7 5 4 4 2 4 2 3 3 6 9 8 7 8
nan nan nan nan nan nan nan nan nan nan nan nan nan nan nan nan nan nan nan nan nan nan nan nan nan nan nan nan nan nan nan nan nan nan nan nan nan nan nan nan nan nan nan nan nan nan nan nan nan nan nan nan 24 20 20 16 16 15 15 18 21 20 23 21 17 11 14 10 16 23 19 16 13 14 7 6 2 1 2 3 3 4 4 5 9 9 7 8
nan nan nan nan nan nan nan nan nan nan nan nan nan nan nan nan nan nan nan nan nan nan nan nan nan nan nan nan nan nan nan nan nan nan nan nan nan nan nan nan nan nan nan nan nan nan nan nan nan nan nan nan nan 20 18 16 13 12 13 18 18 20 23 21 17 14 14 14 14 16 20 21 17 13 8 6 3 1 2 3 3 4 4 4 7 9 8 8
nan nan nan nan nan nan nan nan nan nan nan nan nan nan nan nan nan nan nan nan nan nan nan nan nan nan nan nan nan nan nan nan nan nan nan nan nan nan nan nan nan nan nan nan nan nan nan nan nan nan nan nan nan 17 16 12 10 8 13 16 18 17 20 20 24 15 13 14 12 14 21 21 21 12 7 4 2 2 3 3 3 5 7 5 6 8 8 9
nan nan nan nan nan nan nan nan nan nan nan nan nan nan nan nan nan nan nan nan nan nan nan nan nan nan nan nan nan nan nan nan nan nan nan nan nan nan nan nan nan nan nan nan nan nan nan nan nan nan nan nan nan nan 11 10 8 9 11 14 16 17 17 23 20 15 13 14 14 13 19 23 20 16 11 5 3 3 3 4 4 4 7 7 7 8 8 9
nan nan nan nan nan nan nan nan nan nan nan nan nan nan nan nan nan nan nan nan nan nan nan nan nan nan nan nan nan nan nan nan nan nan nan nan nan nan nan nan nan nan nan nan nan nan nan nan nan nan nan nan nan nan nan nan 14 16 16 19 18 17 17 20 19 17 13 14 12 12 16 21 19 18 17 14 8 5 5 6 7 6 8 9 9 9 9 9
nan nan nan nan nan nan nan nan nan nan nan nan nan nan nan nan nan nan nan nan nan nan nan nan nan nan nan nan nan nan nan nan nan nan nan nan nan nan nan nan nan nan nan nan nan nan nan nan nan nan nan nan nan nan nan nan 16 18 19 19 17 20 22 22 22 18 13 14 10 14 20 22 20 18 14 14 14 8 5 5 6 7 9 10 10 9 9 8
nan nan nan nan nan nan nan nan nan nan nan nan nan nan nan nan nan nan nan nan nan nan nan nan nan nan nan nan nan nan nan nan nan nan nan nan nan nan nan nan nan nan nan nan nan nan nan nan nan nan nan nan nan nan nan nan nan 14 13 14 16 16 20 22 20 14 16 13 11 13 22 23 20 19 17 17 17 6 4 4 4 5 7 10 9 9 8 8
nan nan nan nan nan nan nan nan nan nan nan nan nan nan nan nan nan nan nan nan nan nan nan nan nan nan nan nan nan nan nan nan nan nan nan nan nan nan nan nan nan nan nan nan nan nan nan nan nan nan nan nan nan nan nan nan nan nan 15 14 14 18 21 23 19 16 18 16 12 12 20 24 20 17 18 13 12 16 11 6 5 5 6 9 10 9 8 9
nan nan nan nan nan nan nan nan nan nan nan nan nan nan nan nan nan nan nan nan nan nan nan nan nan nan nan nan nan nan nan nan nan nan nan nan nan nan nan nan nan nan nan nan nan nan nan nan nan nan nan nan nan nan nan nan nan nan nan 16 15 15 13 15 11 13 17 16 12 11 20 27 24 18 17 17 16 17 20 15 11 8 7 7 8 9 9 9
nan nan nan nan nan nan nan nan nan nan nan nan nan nan nan nan nan nan nan nan nan nan nan nan nan nan nan nan nan nan nan nan nan nan nan nan nan nan nan nan nan nan nan nan nan nan nan nan nan nan nan nan nan nan nan nan nan nan nan nan 17 13 14 14 11 16 17 17 10 12 19 25 21 14 14 17 22 20 16 16 17 15 12 10 10 11 11 10
nan nan nan nan nan nan nan nan nan nan nan nan nan nan nan nan nan nan nan nan nan nan nan nan nan nan nan nan nan nan nan nan nan nan nan nan nan nan nan nan nan nan nan nan nan nan nan nan nan nan nan nan nan nan nan nan nan nan nan nan 16 13 17 22 19 20 16 14 11 9 10 16 18 11 10 13 18 17 17 15 15 15 12 10 7 8 10 11
nan nan nan nan nan nan nan nan nan nan nan nan nan nan nan nan nan nan nan nan nan nan nan nan nan nan nan nan nan nan nan nan nan nan nan nan nan nan nan nan nan nan nan nan nan nan nan nan nan nan nan nan nan nan nan nan nan nan nan nan 16 14 19 20 19 20 18 15 10 5 8 12 21 15 11 11 13 15 22 18 18 17 16 11 8 9 9 8
nan nan nan nan nan nan nan nan nan nan nan nan nan nan nan nan nan nan nan nan nan nan nan nan nan nan nan nan nan nan nan nan nan nan nan nan nan nan nan nan nan nan nan nan nan nan nan nan nan nan nan nan nan nan nan nan nan nan nan nan 21 19 18 17 18 17 24 26 18 11 12 11 16 16 10 12 11 15 17 18 17 15 14 13 10 9 9 nan
nan nan nan nan nan nan nan nan nan nan nan nan nan nan nan nan nan nan nan nan nan nan nan nan nan nan nan nan nan nan nan nan nan nan nan nan nan nan nan nan nan nan nan nan nan nan nan nan nan nan nan nan nan nan nan nan nan nan nan nan 26 21 21 21 19 21 22 19 17 11 10 nan nan 17 13 14 12 10 10 13 14 13 12 13 12 9 9 nan
nan nan nan nan nan nan nan nan nan nan nan nan nan nan nan nan nan nan nan nan nan nan nan nan nan nan nan nan nan nan nan nan nan nan nan nan nan nan nan nan nan nan nan nan nan nan nan nan nan nan nan nan nan nan nan nan nan 34 34 37 34 32 29 24 24 24 22 16 15 13 11 14 16 15 11 9 8 4 5 8 11 13 12 13 14 12 11 nan
nan nan nan nan nan nan nan nan nan nan nan nan nan nan nan nan nan nan nan nan nan nan nan nan nan nan nan nan nan nan nan nan nan nan nan nan nan nan nan nan nan nan nan nan nan nan nan nan nan nan nan nan nan nan nan nan nan 32 35 37 36 34 33 32 31 28 24 17 19 18 13 13 nan 10 6 7 5 7 13 13 14 17 17 16 17 15 14 nan
nan nan nan nan nan nan nan nan nan nan nan nan nan nan nan nan nan nan nan nan nan nan nan nan nan nan nan nan nan nan nan nan nan nan nan nan nan nan nan nan nan nan nan nan nan nan nan nan nan nan nan nan nan nan nan nan 32 30 nan 34 35 36 33 31 31 30 23 22 nan 19 14 14 14 19 10 8 19 8 9 7 8 13 15 16 17 18 15 14
nan nan nan nan nan nan nan nan nan nan nan nan nan nan nan nan nan nan nan nan nan nan nan nan nan nan nan nan nan nan nan nan nan nan nan nan nan nan nan nan nan nan nan nan nan nan nan nan nan nan nan nan nan nan nan nan 30 nan 33 nan nan 35 31 30 30 25 21 23 nan 23 19 18 11 21 19 10 10 13 6 6 7 11 16 20 21 20 20 19
nan nan nan nan nan nan nan nan nan nan nan nan nan nan nan nan nan nan nan nan nan nan nan nan nan nan nan nan nan nan nan nan nan nan nan nan nan nan nan nan nan nan nan nan nan nan nan nan nan nan nan nan nan nan nan nan 29 nan nan nan nan 32 31 nan 28 27 24 nan 27 24 19 15 22 20 17 17 14 10 10 8 6 11 16 22 25 24 24 21
nan nan nan nan nan nan nan nan nan nan nan nan nan nan nan nan nan 2 nan nan nan nan nan nan nan nan nan nan nan nan nan nan nan nan nan nan nan nan nan nan nan nan nan nan nan nan nan nan nan nan nan nan nan nan nan nan 29 nan nan nan nan nan nan 27 25 20 19 24 28 28 21 19 14 20 17 17 16 14 11 nan 7 9 17 22 28 28 26 25
nan nan nan nan nan nan nan nan nan nan nan nan nan nan nan nan nan nan nan nan nan nan nan nan nan nan nan nan nan nan nan nan nan nan nan nan nan nan nan nan nan nan nan nan nan nan nan nan nan nan nan nan nan nan nan nan nan 27 nan nan nan nan nan nan 28 24 24 25 26 23 19 21 19 20 18 16 15 12 12 10 10 12 17 22 30 31 27 25
nan nan nan nan nan nan nan nan nan nan nan nan nan nan nan nan nan nan nan nan nan nan nan nan nan nan nan nan nan nan nan nan nan nan nan nan nan nan nan nan nan nan nan nan nan nan nan nan nan nan nan nan nan nan nan nan nan 31 34 nan nan 33 nan 31 31 32 28 nan 23 22 19 18 20 17 17 15 13 11 12 11 11 13 17 19 28 34 32 29
nan nan nan nan nan nan nan nan nan nan nan nan nan nan nan nan nan nan 5 nan nan nan nan nan nan nan nan nan nan nan nan nan nan nan nan nan nan nan nan nan nan nan nan nan nan nan nan nan nan nan nan nan nan nan nan nan nan nan nan nan nan nan 36 nan 27 28 25 nan 24 20 17 19 21 22 19 16 14 12 11 9 8 12 16 16 22 33 36 31
nan nan 7 nan nan nan nan nan nan nan nan nan nan 1 2 nan nan nan nan nan nan nan nan nan nan nan nan nan nan nan nan nan nan nan nan nan nan nan nan nan nan nan nan nan nan nan nan nan nan nan nan nan nan nan nan nan nan nan nan 32 nan nan nan 33 30 26 24 nan 24 18 17 19 16 19 18 15 14 13 12 10 8 10 12 11 18 31 34 32
nan nan nan nan nan nan nan nan nan nan nan nan nan nan nan nan nan nan nan nan nan nan nan nan nan nan nan nan nan nan nan nan nan nan nan nan nan nan nan nan nan nan nan nan nan nan nan nan nan nan nan nan nan nan nan nan nan nan nan nan nan nan nan 28 nan 28 nan 26 22 18 nan 18 13 16 13 15 15 13 14 12 9 8 10 8 13 24 30 29
nan nan nan nan nan nan nan nan nan nan nan nan nan nan nan nan nan nan nan nan nan nan nan nan nan nan nan nan nan nan nan nan nan nan nan nan nan nan nan nan nan nan nan nan nan nan nan nan nan nan nan nan nan nan nan nan nan nan nan 32 nan nan nan nan nan 30 27 27 21 21 18 18 20 20 18 17 16 14 12 13 12 8 9 8 10 19 27 30
nan nan nan nan nan nan nan nan nan nan nan nan nan nan nan nan nan nan nan nan nan nan nan nan nan nan nan nan nan nan nan nan nan nan nan nan nan nan nan nan nan nan nan nan nan nan nan nan nan nan nan nan nan nan nan nan nan nan nan nan nan nan nan nan nan nan 31 28 26 nan nan 24 nan 19 21 18 17 15 15 14 14 12 8 9 8 12 20 24
nan nan nan nan nan nan nan nan nan nan nan nan nan nan nan 5 nan nan nan nan nan nan nan nan nan nan nan nan nan nan nan nan nan nan nan nan nan nan nan nan nan nan nan nan nan nan nan nan nan nan nan nan nan nan nan nan nan nan nan nan nan nan nan nan 29 29 30 31 nan 26 22 23 23 22 20 20 18 18 17 15 16 17 14 8 9 9 12 16
nan nan nan nan nan nan nan nan 2 2 nan nan nan nan nan nan nan nan nan nan nan nan nan nan nan nan nan nan nan nan nan nan nan nan nan nan nan nan nan nan nan nan nan nan nan nan nan nan nan nan nan nan nan nan nan nan nan nan nan nan nan nan nan nan nan 28 26 30 25 24 19 22 20 22 19 21 21 19 17 17 18 17 16 16 14 12 11 13
nan nan nan nan nan nan nan nan nan nan nan nan nan nan nan nan nan nan nan nan nan nan nan nan nan nan nan nan nan nan nan nan nan nan nan nan nan nan nan nan nan nan nan nan nan nan nan nan nan nan nan nan nan nan nan nan nan nan nan nan nan nan nan 42 41 35 29 30 30 23 nan 20 17 20 21 22 21 20 20 19 18 18 18 18 19 19 18 14
nan nan nan nan nan nan nan nan nan nan nan nan nan nan nan nan nan nan nan nan nan nan nan nan nan nan nan nan nan nan nan nan nan nan nan nan nan nan nan nan nan nan nan 30 33 nan nan nan nan nan nan nan nan nan nan nan nan nan nan nan nan nan 43 38 36 35 33 35 34 29 28 24 20 17 17 18 21 23 22 21 20 20 21 20 20 20 20 21
nan nan nan nan nan nan nan nan nan nan nan nan nan nan nan nan nan nan nan nan nan nan nan nan nan nan nan nan nan nan nan nan nan nan nan nan nan nan nan nan nan nan 28 31 34 30 nan nan nan nan nan nan nan nan nan nan nan nan nan nan nan 41 44 43 41 35 nan 34 31 34 33 26 21 16 15 16 19 21 21 20 21 22 23 23 22 21 22 21
nan nan nan 8 nan nan nan nan nan nan nan nan nan nan nan nan nan nan nan nan nan nan nan nan nan nan nan nan nan nan nan nan nan nan nan nan nan nan nan nan nan nan 29 26 nan nan 32 nan nan nan nan nan nan nan nan nan nan nan nan nan nan nan 40 38 36 32 39 38 31 37 32 31 22 21 18 17 18 19 19 19 20 20 21 21 21 23 23 21
nan nan nan nan nan nan nan nan nan nan nan nan nan nan nan nan nan nan nan nan nan nan nan nan nan nan nan nan 18 nan 24 nan nan nan nan nan nan nan nan nan nan nan nan nan nan nan nan nan nan nan nan nan nan nan nan nan nan 40 43 39 37 37 35 31 39 37 32 28 nan 31 29 29 27 24 24 23 21 20 19 19 20 22 21 19 19 22 23 24
nan nan nan nan 5 nan nan nan nan nan nan 7 nan nan nan nan nan nan nan nan nan nan nan 10 nan nan nan nan nan nan 24 nan nan nan nan nan nan nan nan nan nan nan nan nan nan nan nan nan nan nan nan nan nan nan nan nan nan nan 45 44 40 36 36 37 39 38 39 37 34 34 31 31 30 27 27 28 26 25 25 26 23 23 23 23 23 22 24 25
11 9 8 8 7 7 6 nan nan nan nan 10 nan nan nan nan nan nan nan nan nan nan nan nan nan nan nan nan nan nan nan nan nan nan nan nan nan nan nan nan nan nan nan nan nan nan nan 31 nan nan nan nan nan nan nan nan nan nan 44 45 44 41 40 39 39 39 40 44 41 41 37 34 31 29 28 29 30 31 30 28 28 29 28 28 29 29 28 29
nan nan nan 6 7 8 7 nan nan nan nan nan nan nan nan nan nan nan nan nan nan nan nan nan nan nan nan nan nan nan nan nan nan nan nan nan nan nan nan nan nan nan nan nan nan nan nan 33 nan nan nan nan nan nan nan nan nan 41 43 45 44 40 39 38 37 36 34 38 40 43 38 33 32 32 33 31 31 29 31 33 33 33 34 34 35 34 33 34
nan nan 9 8 8 nan nan nan nan nan nan nan nan nan nan nan nan nan nan nan nan nan nan nan nan nan nan nan nan nan nan nan nan nan nan nan nan nan nan nan nan nan nan nan nan nan nan 37 37 nan nan nan nan 32 nan nan nan 35 nan 41 37 33 36 39 39 37 35 38 38 35 36 37 37 37 37 34 31 31 33 34 36 38 38 nan 39 nan 37 37
Wind_Direction
nan nan nan nan nan nan nan nan nan nan nan nan nan nan nan nan nan nan nan nan nan nan nan nan nan nan nan nan nan nan nan nan nan nan nan nan nan nan nan nan nan nan nan nan nan nan nan nan nan nan nan nan nan nan nan nan 242 282 335 14 19 338 348 320 303 167 163 154 146 138 134 162 154 131 143 175 197 202 189 196 194 201 222 248 258 233 106 79
nan nan nan nan nan nan nan nan nan nan nan nan nan nan nan nan nan nan nan nan nan nan nan nan nan nan nan nan nan nan nan nan nan nan nan nan nan nan nan nan nan nan nan nan nan nan nan nan nan nan nan nan nan nan 272 247 287 84 229 21 64 326 343 8 103 124 126 133 139 144 133 155 162 138 116 150 179 192 194 187 202 219 243 269 268 258 92 89
nan nan nan nan nan nan nan nan nan nan nan nan nan nan nan nan nan nan nan nan nan nan nan nan nan nan nan nan nan nan nan nan nan nan nan nan nan nan nan nan nan nan nan nan nan nan nan nan nan nan nan nan nan nan nan 245 290 nan 108 116 358 5 28 103 125 131 135 132 147 151 154 175 155 142 130 155 178 161 187 183 183 217 280 293 284 292 79 86
nan nan nan nan nan nan nan nan nan nan nan nan nan nan nan nan nan nan nan nan nan nan nan nan nan nan nan nan nan nan nan nan nan nan nan nan nan nan nan nan nan nan nan nan nan nan nan nan nan nan nan nan nan nan nan nan nan 251 25 60 295 11 60 130 136 140 146 142 158 165 167 178 152 154 144 200 186 150 162 173 187 184 317 307 298 307 91 82
nan nan nan nan nan nan nan nan nan nan nan nan nan nan nan nan nan nan nan nan nan nan nan nan nan nan nan nan nan nan nan nan nan nan nan 238 nan nan nan nan nan nan nan nan nan nan nan nan nan nan nan nan nan nan nan nan nan 233 141 129 101 15 45 154 161 152 155 161 171 170 171 172 168 164 148 86 152 137 140 169 186 222 330 312 299 283 104 93
nan nan nan nan nan nan nan nan nan nan nan nan nan nan nan nan nan nan nan nan nan nan nan nan nan nan nan nan nan nan nan nan nan nan nan 244 nan nan nan nan nan nan nan nan nan nan nan nan nan nan nan nan nan nan nan nan nan 198 185 113 99 306 10 223 199 173 160 171 179 170 166 168 148 149 132 154 165 173 162 185 228 229 222 224 242 209 121 106
nan nan nan nan nan nan nan nan nan nan nan nan nan nan nan nan nan nan nan nan nan nan nan nan nan nan nan nan nan nan nan nan nan nan 224 252 nan nan nan nan nan nan nan nan nan nan nan nan nan nan nan nan nan nan nan nan nan nan nan 205 237 271 305 303 236 177 168 178 182 178 156 168 201 189 129 161 169 193 179 208 250 262 259 234 225 165 134 116
nan nan nan nan nan nan nan nan nan nan nan nan nan nan nan nan nan nan nan nan nan nan nan nan nan nan nan nan nan nan nan nan nan 219 243 nan nan nan 265 nan nan nan nan nan nan nan nan nan nan nan nan nan nan nan nan nan nan nan nan 219 243 252 263 304 261 200 193 198 196 201 195 173 166 209 140 166 169 225 205 211 262 272 277 246 198 165 143 133
nan nan nan nan nan nan nan nan nan nan nan nan nan nan nan nan nan nan nan nan nan nan nan nan nan nan nan nan nan nan nan nan nan 221 nan nan nan nan nan nan nan nan nan nan nan nan nan nan nan nan nan nan nan nan nan nan nan nan 226 237 245 250 264 292 273 232 222 199 218 226 207 191 191 226 193 170 193 229 239 223 265 275 273 260 200 168 152 143
nan nan nan nan nan nan nan nan nan nan nan nan nan nan nan nan nan nan nan nan nan nan nan nan nan nan nan nan nan nan nan nan nan nan nan nan nan nan nan nan nan nan nan nan nan nan nan nan nan nan nan nan nan nan nan nan nan nan 242 239 246 253 260 269 282 246 225 222 220 229 220 201 181 149 185 165 263 255 247 242 240 268 268 256 208 173 161 156
nan nan nan nan nan nan nan nan nan nan nan nan nan nan nan nan nan nan nan nan nan nan nan nan nan nan nan nan nan nan nan nan nan nan nan nan nan nan nan nan nan nan nan nan nan nan nan nan nan nan nan nan nan nan nan nan 236 246 248 245 244 244 242 257 266 259 241 221 205 229 215 190 183 173 197 291 286 279 261 245 234 208 243 247 232 184 172 166
nan nan nan nan nan nan nan nan nan nan nan nan nan nan nan nan nan nan nan nan nan nan nan nan nan nan nan nan nan nan nan nan nan nan nan nan nan nan nan nan nan nan nan nan nan nan nan nan nan nan nan nan nan nan 226 237 243 249 250 239 241 244 241 243 269 255 231 238 224 227 222 204 187 198 209 277 287 295 271 265 245 191 217 254 241 196 177 174
nan nan nan nan nan nan nan nan nan nan nan nan nan nan nan nan nan nan nan nan nan nan nan nan nan nan nan nan nan nan nan nan nan nan nan nan nan nan nan nan nan nan nan nan nan nan nan nan nan nan nan nan nan nan 229 234 246 244 232 241 243 243 238 231 228 233 244 241 236 214 200 196 195 199 225 264 282 299 264 260 232 164 197 246 245 205 182 180
nan nan nan nan nan nan nan nan nan nan nan nan nan nan nan nan nan nan nan nan nan nan nan nan nan nan nan nan nan nan nan nan nan nan nan nan nan nan nan nan nan nan nan nan nan nan nan nan nan nan nan nan nan 220 234 242 237 237 236 232 233 240 237 241 238 228 251 226 217 211 197 205 207 200 227 242 287 329 274 259 238 145 165 240 241 223 189 180
nan nan nan nan nan nan nan nan nan nan nan nan nan nan nan nan nan nan nan nan nan nan nan nan nan nan nan nan nan nan nan nan nan nan nan nan nan nan nan nan nan nan nan nan nan nan nan nan nan nan nan nan 219 223 241 238 232 242 241 228 228 224 233 237 239 241 260 239 215 218 197 202 206 201 219 223 243 315 254 242 229 137 140 232 237 234 202 179
nan nan nan nan nan nan nan nan nan nan nan nan nan nan nan nan nan nan nan nan nan nan nan nan nan nan nan nan nan nan nan nan nan nan nan nan nan nan nan nan nan nan nan nan nan nan nan nan nan nan nan nan nan 230 236 237 234 228 210 224 227 223 229 229 234 226 209 250 219 215 213 217 198 197 208 218 242 252 240 238 217 136 125 205 230 227 205 187
nan nan nan nan nan nan nan nan nan nan nan nan nan nan nan nan nan nan nan nan nan nan nan nan nan nan nan nan nan nan nan nan nan nan nan nan nan nan nan nan nan nan nan nan nan nan nan nan nan nan nan nan nan 230 236 225 233 238 218 219 226 226 232 225 231 232 219 254 247 229 223 205 204 211 209 223 239 234 230 245 231 162 141 163 208 220 209 185
nan nan nan nan nan nan nan nan nan nan nan nan nan nan nan nan nan nan nan nan nan nan nan nan nan nan nan nan nan nan nan nan nan nan nan nan nan nan nan nan nan nan nan nan nan nan nan nan nan nan nan nan nan nan 219 222 227 232 226 221 224 217 227 224 227 242 233 252 259 246 220 214 215 213 200 209 242 208 228 229 235 181 145 151 186 205 208 187
nan nan nan nan nan nan nan nan nan nan nan nan nan nan nan nan nan nan nan nan nan nan nan nan nan nan nan nan nan nan nan nan nan nan nan nan nan nan nan nan nan nan nan nan nan nan nan nan nan nan nan nan nan nan nan nan 209 216 220 211 212 212 219 219 222 234 248 258 259 245 221 219 222 214 202 193 198 205 216 217 212 196 156 152 175 193 200 190
nan nan nan nan nan nan nan nan nan nan nan nan nan nan nan nan nan nan nan nan nan nan nan nan nan nan nan nan nan nan nan nan nan nan nan nan nan nan nan nan nan nan nan nan nan nan nan nan nan nan nan nan nan nan nan nan 209 230 226 219 210 206 213 217 221 223 234 242 251 225 215 217 216 215 199 195 203 207 214 231 219 203 169 158 171 183 192 191
nan nan nan nan nan nan nan nan nan nan nan nan nan nan nan nan nan nan nan nan nan nan nan nan nan nan nan nan nan nan nan nan nan nan nan nan nan nan nan nan nan nan nan nan nan nan nan nan nan nan nan nan nan nan nan nan nan 225 226 217 213 196 207 214 214 232 222 210 250 219 213 211 210 212 203 202 203 204 215 231 220 215 180 171 172 175 183 182
nan nan nan nan nan nan nan nan nan nan nan nan nan nan nan nan nan nan nan nan nan nan nan nan nan nan nan nan nan nan nan nan nan nan nan nan nan nan nan nan nan nan nan nan nan nan nan nan nan nan nan nan nan nan nan nan nan nan 205 206 201 209 219 215 220 231 215 206 234 235 216 208 204 211 208 203 200 197 200 205 203 216 197 182 174 171 176 179
nan nan nan nan nan nan nan nan nan nan nan nan nan nan nan nan nan nan nan nan nan nan nan nan nan nan nan nan nan nan nan nan nan nan nan nan nan nan nan nan nan nan nan nan nan nan nan nan nan nan nan nan nan nan nan nan nan nan nan 201 198 224 218 212 213 230 225 212 228 236 217 201 194 194 203 198 201 196 206 204 195 188 201 197 176 169 175 174
nan nan nan nan nan nan nan nan nan nan nan nan nan nan nan nan nan nan nan nan nan nan nan nan nan nan nan nan nan nan nan nan nan nan nan nan nan nan nan nan nan nan nan nan nan nan nan nan nan nan nan nan nan nan nan nan nan nan nan nan 212 232 210 207 222 224 228 227 225 236 209 194 188 191 186 196 197 202 213 214 204 192 188 199 187 169 173 175
nan nan nan nan nan nan nan nan nan nan nan nan nan nan nan nan nan nan nan nan nan nan nan nan nan nan nan nan nan nan nan nan nan nan nan nan nan nan nan nan nan nan nan nan nan nan nan nan nan nan nan nan nan nan nan nan nan nan nan nan 206 226 227 232 243 237 224 215 216 253 213 187 188 184 200 202 201 204 212 215 207 198 192 199 183 167 181 182
nan nan nan nan nan nan nan nan nan nan nan nan nan nan nan nan nan nan nan nan nan nan nan nan nan nan nan nan nan nan nan nan nan nan nan nan nan nan nan nan nan nan nan nan nan nan nan nan nan nan nan nan nan nan nan nan nan nan nan nan 212 231 234 246 246 233 226 214 232 208 195 196 191 184 208 215 213 218 219 210 207 199 194 195 182 175 185 191
nan nan nan nan nan nan nan nan nan nan nan nan nan nan nan nan nan nan nan nan nan nan nan nan nan nan nan nan nan nan nan nan nan nan nan nan nan nan nan nan nan nan nan nan nan nan nan nan nan nan nan nan nan nan nan nan nan nan nan nan 216 231 237 239 244 226 222 223 233 228 212 201 187 178 213 232 229 230 225 215 208 194 188 190 183 173 187 nan
nan nan nan nan nan nan nan nan nan nan nan nan nan nan nan nan nan nan nan nan nan nan nan nan nan nan nan nan nan nan nan nan nan nan nan nan nan nan nan nan nan nan nan nan nan nan nan nan nan nan nan nan nan nan nan nan nan nan nan nan 221 219 222 228 223 222 228 232 231 231 218 nan nan 191 225 239 231 230 225 224 213 192 183 189 189 180 188 nan
nan nan nan nan nan nan nan nan nan nan nan nan nan nan nan nan nan nan nan nan nan nan nan nan nan nan nan nan nan nan nan nan nan nan nan nan nan nan nan nan nan nan nan nan nan nan nan nan nan nan nan nan nan nan nan nan nan 205 220 223 221 219 220 221 217 221 229 226 234 249 240 213 218 205 221 247 226 244 230 231 224 203 189 190 190 192 197 nan
nan nan nan nan nan nan nan nan nan nan nan nan nan nan nan nan nan nan nan nan nan nan nan nan nan nan nan nan nan nan nan nan nan nan nan nan nan nan nan nan nan nan nan nan nan nan nan nan nan nan nan nan nan nan nan nan nan 220 224 225 220 218 219 219 216 216 224 222 225 253 257 227 nan 232 238 258 208 227 227 223 223 208 194 192 190 195 203 nan
nan nan nan nan nan nan nan nan nan nan nan nan nan nan nan nan nan nan nan nan nan nan nan nan nan nan nan nan nan nan nan nan nan nan nan nan nan nan nan nan nan nan nan nan nan nan nan nan nan nan nan nan nan nan nan nan 227 216 nan 222 220 218 219 219 218 214 214 224 nan 243 265 254 224 233 235 231 216 230 236 239 248 223 204 196 197 198 201 207
nan nan nan nan nan nan nan nan nan nan nan nan nan nan nan nan nan nan nan nan nan nan nan nan nan nan nan nan nan nan nan nan nan nan nan nan nan nan nan nan nan nan nan nan nan nan nan nan nan nan nan nan nan nan nan nan 216 nan 218 nan nan 213 214 218 220 220 212 219 nan 234 254 240 220 227 231 249 226 220 224 216 239 235 214 204 203 205 206 208
nan nan nan nan nan nan nan nan nan nan nan nan nan nan nan nan nan nan nan nan nan nan nan nan nan nan nan nan nan nan nan nan nan nan nan nan nan nan nan nan nan nan nan nan nan nan nan nan nan nan nan nan nan nan nan nan 211 nan nan nan nan 218 217 nan 222 215 211 nan 229 238 251 224 229 232 233 233 233 225 217 208 226 249 231 217 209 209 209 209
nan nan nan nan nan nan nan nan nan nan nan nan nan nan nan nan nan 83 nan nan nan nan nan nan nan nan nan nan nan nan nan nan nan nan nan nan nan nan nan nan nan nan nan nan nan nan nan nan nan nan nan nan nan nan nan nan 219 nan nan nan nan nan nan 222 225 224 223 229 232 244 245 227 232 238 224 212 215 222 224 nan 226 258 249 233 221 215 213 210
nan nan nan nan nan nan nan nan nan nan nan nan nan nan nan nan nan nan nan nan nan nan nan nan nan nan nan nan nan nan nan nan nan nan nan nan nan nan nan nan nan nan nan nan nan nan nan nan nan nan nan nan nan nan nan nan nan 213 nan nan nan nan nan nan 218 217 226 231 233 236 225 221 220 224 226 224 224 226 233 237 256 273 265 252 231 220 213 210
nan nan nan nan nan nan nan nan nan nan nan nan nan nan nan nan nan nan nan nan nan nan nan nan nan nan nan nan nan nan nan nan nan nan nan nan nan nan nan nan nan nan nan nan nan nan nan nan nan nan nan nan nan nan nan nan nan 216 211 nan nan 215 nan 223 225 223 228 nan 224 225 214 220 214 224 224 221 225 236 236 246 268 286 284 272 238 220 211 206
nan nan nan nan nan nan nan nan nan nan nan nan nan nan nan nan nan nan 46 nan nan nan nan nan nan nan nan nan nan nan nan nan nan nan nan nan nan nan nan nan nan nan nan nan nan nan nan nan nan nan nan nan nan nan nan nan nan nan nan nan nan nan 211 nan 215 221 216 nan 225 222 210 212 213 219 226 235 233 235 242 248 277 302 286 276 242 221 212 205
nan nan 327 nan nan nan nan nan nan nan nan nan nan 203 101 nan nan nan nan nan nan nan nan nan nan nan nan nan nan nan nan nan nan nan nan nan nan nan nan nan nan nan nan nan nan nan nan nan nan nan nan nan nan nan nan nan nan nan nan 223 nan nan nan 216 219 221 221 nan 225 220 208 200 206 215 223 239 234 236 235 253 275 315 308 279 246 227 215 211
nan nan nan nan nan nan nan nan nan nan nan nan nan nan nan nan nan nan nan nan nan nan nan nan nan nan nan nan nan nan nan nan nan nan nan nan nan nan nan nan nan nan nan nan nan nan nan nan nan nan nan nan nan nan nan nan nan nan nan nan nan nan nan 226 nan 220 nan 222 222 228 nan 209 221 219 243 239 237 240 237 245 273 315 324 282 253 231 217 210
nan nan nan nan nan nan nan nan nan nan nan nan nan nan nan nan nan nan nan nan nan nan nan nan nan nan nan nan nan nan nan nan nan nan nan nan nan nan nan nan nan nan nan nan nan nan nan nan nan nan nan nan nan nan nan nan nan nan nan 210 nan nan nan nan nan 216 220 227 221 220 217 220 222 221 227 243 247 246 240 243 253 293 322 310 261 229 216 211
nan nan nan nan nan nan nan nan nan nan nan nan nan nan nan nan nan nan nan nan nan nan nan nan nan nan nan nan nan nan nan nan nan nan nan nan nan nan nan nan nan nan nan nan nan nan nan nan nan nan nan nan nan nan nan nan nan nan nan nan nan nan nan nan nan nan 218 223 225 nan nan 226 nan 227 220 235 242 244 243 247 250 257 295 310 292 241 221 217
nan nan nan nan nan nan nan nan nan nan nan nan nan nan nan 212 nan nan nan nan nan nan nan nan nan nan nan nan nan nan nan nan nan nan nan nan nan nan nan nan nan nan nan nan nan nan nan nan nan nan nan nan nan nan nan nan nan nan nan nan nan nan nan nan 228 230 223 222 nan 220 218 228 228 226 224 241 242 244 247 250 248 243 248 273 284 273 241 230
nan nan nan nan nan nan nan nan 247 241 nan nan nan nan nan nan nan nan nan nan nan nan nan nan nan nan nan nan nan nan nan nan nan nan nan nan nan nan nan nan nan nan nan nan nan nan nan nan nan nan nan nan nan nan nan nan nan nan nan nan nan nan nan nan nan 235 230 232 227 227 216 224 230 225 231 240 242 245 248 252 255 249 244 242 251 258 257 255
nan nan nan nan nan nan nan nan nan nan nan nan nan nan nan nan nan nan nan nan nan nan nan nan nan nan nan nan nan nan nan nan nan nan nan nan nan nan nan nan nan nan nan nan nan nan nan nan nan nan nan nan nan nan nan nan nan nan nan nan nan nan nan 227 229 225 226 228 216 226 nan 216 228 230 234 242 246 249 251 250 256 257 251 246 242 238 237 239
nan nan nan nan nan nan nan nan nan nan nan nan nan nan nan nan nan nan nan nan nan nan nan nan nan nan nan nan nan nan nan nan nan nan nan nan nan nan nan nan nan nan nan 204 206 nan nan nan nan nan nan nan nan nan nan nan nan nan nan nan nan nan 238 236 232 230 224 226 219 217 216 215 234 235 242 247 247 248 248 249 253 256 254 248 241 238 235 232
nan nan nan nan nan nan nan nan nan nan nan nan nan nan nan nan nan nan nan nan nan nan nan nan nan nan nan nan nan nan nan nan nan nan nan nan nan nan nan nan nan nan 198 213 212 209 nan nan nan nan nan nan nan nan nan nan nan nan nan nan nan 223 222 224 233 236 nan 234 229 222 222 236 242 248 250 251 248 251 252 252 253 252 252 249 245 242 238 233
nan nan nan 262 nan nan nan nan nan nan nan nan nan nan nan nan nan nan nan nan nan nan nan nan nan nan nan nan nan nan nan nan nan nan nan nan nan nan nan nan nan nan 194 208 nan nan 207 nan nan nan nan nan nan nan nan nan nan nan nan nan nan nan 224 234 240 236 239 241 230 232 238 247 251 254 253 254 250 247 247 248 245 246 245 246 248 248 247 246
nan nan nan nan nan nan nan nan nan nan nan nan nan nan nan nan nan nan nan nan nan nan nan nan nan nan nan nan 229 nan 212 nan nan nan nan nan nan nan nan nan nan nan nan nan nan nan nan nan nan nan nan nan nan nan nan nan nan 215 216 222 228 228 229 233 231 235 251 244 nan 248 253 247 252 256 254 252 249 244 246 244 241 242 244 249 250 247 249 249
nan nan nan nan 255 nan nan nan nan nan nan 218 nan nan nan nan nan nan nan nan nan nan nan 234 nan nan nan nan nan nan 219 nan nan nan nan nan nan nan nan nan nan nan nan nan nan nan nan nan nan nan nan nan nan nan nan nan nan nan 219 220 221 226 228 231 235 235 230 230 232 258 258 246 254 255 252 251 249 248 245 241 245 246 247 250 251 251 250 249
263 247 255 239 243 250 232 nan nan nan nan 193 nan nan nan nan nan nan nan nan nan nan nan nan nan nan nan nan nan nan nan nan nan nan nan nan nan nan nan nan nan nan nan nan nan nan nan 205 nan nan nan nan nan nan nan nan nan nan 224 222 223 226 231 233 240 240 239 236 246 258 257 254 255 259 257 252 251 247 249 252 253 252 253 254 256 257 255 255
nan nan nan 225 253 225 228 nan nan nan nan nan nan nan nan nan nan nan nan nan nan nan nan nan nan nan nan nan nan nan nan nan nan nan nan nan nan nan nan nan nan nan nan nan nan nan nan 209 nan nan nan nan nan nan nan nan nan 227 222 216 215 220 232 235 237 238 238 247 252 255 255 258 264 268 263 260 257 256 253 252 252 254 257 259 260 259 259 259
nan nan 225 211 234 nan nan nan nan nan nan nan nan nan nan nan nan nan nan nan nan nan nan nan nan nan nan nan nan nan nan nan nan nan nan nan nan nan nan nan nan nan nan nan nan nan nan 209 204 nan nan nan nan 203 nan nan nan 223 nan 208 209 215 227 232 233 236 241 257 256 253 247 255 268 268 269 266 264 259 254 250 250 253 254 nan 261 nan 261 262